User: anonymous   Login
Location: Deep South Regional Star Gaze
(30.9929°N, 90.9586°W)
Time: 04:53:58
(UTC-05:00)
Language:

H-2A R/B - Orbit

View from above orbital plane
View from above orbital plane
View from above satellite
View from above satellite

Ground track
Ground track

The orbit data is extracted from the following two-line orbital elements,

1 26899U 01038B   16120.53482059  .00000714  00000-0  20421-3 0  9996
2 26899  27.8897 233.1849 7132009 274.1451  14.6145  2.47064002126277
Epoch (UTC): 29 April 2016 12:50:08
Eccentricity: 0.7132009
inclination: 27.8897°
perigee height: 251 km
apogee height: 33219 km
right ascension of ascending node: 233.1849°
argument of perigee: 274.1451°
revolutions per day: 2.47064002
mean anomaly at epoch: 14.6145°
orbit number at epoch: 12627

The dashed part of the orbit path shows where the satellite is in the earth's shadow,  

DLR